Regional Weather Roundup
Issued by NWS Northern Indiana

Home | Current Version | Previous Version | Text Only | Print | Product List | Glossary On
Versions: 1 2 3 4 5 6 7 8 9 10 11 12 13 14 15 16 17 18 19 20 21 22 23 24 25 26 27 28 29 30 31 32 33 34 35 36 37 38 39 40 41 42 43 44 45 46 47 48 49 50
000
ASUS43 KIWX 240010
RWRIWX

KIWX WEATHER ROUNDUP
NATIONAL WEATHER SERVICE NORTHERN INDIANA
800 PM EDT SUN SEP 23 2018

NOTE: "FAIR" INDICATES FEW OR NO CLOUDS BELOW 12,000 FEET WITH NO
SIGNIFICANT WEATHER AND/OR OBSTRUCTIONS TO VISIBILITY.

* THESE STATIONS ARE NOT UNDER NWS QUALITY CONTROL. THEY ALSO MAY NOT
  REPORT WEATHER SUCH AS PRECIPITATION OR FOG.

INZ001>027-240100-
NORTHERN INDIANA

CITY           SKY/WX    TMP DP  RH WIND       PRES   REMARKS
GARY*          CLEAR     64  57  77 NE8       30.12S
VALPARAISO     FAIR      65  47  52 E3        30.12R
6HR MIN TEMP:  65; 6HR MAX TEMP:  78;

MICHIGAN CITY* FAIR      61  54  77 CALM      30.12S
LAPORTE*       FAIR      62  50  64 E5        30.13R
6HR MIN TEMP:  62; 6HR MAX TEMP:  74;

KNOX*          FAIR      63  48  59 E5        30.12R
SOUTH BEND     FAIR      65  50  58 E5        30.13R
6HR MIN TEMP:  65; 6HR MAX TEMP:  72;

GOSHEN         FAIR      62  52  69 E6        30.14R
6HR MIN TEMP:  62; 6HR MAX TEMP:  74;

MONTICELLO*    FAIR      66  49  52 NE7       30.08F
6HR MIN TEMP:  69; 6HR MAX TEMP:  75;

LOGANSPORT*    FAIR      64  50  59 NE3       30.10F
ROCHESTER*     FAIR      64  50  59 E3        30.12S
WARSAW*        FAIR      63  50  63 E3        30.13S
KENDALLVILLE*  FAIR      64  47  55 E5        30.15S
AUBURN*        FAIR      59  52  77 E5        30.15S
FORT WAYNE     FAIR      63  52  67 NE7       30.14R
6HR MIN TEMP:  63; 6HR MAX TEMP:  74;

HUNTINGTON*    FAIR      64  48  55 E3        30.12S
6HR MIN TEMP:  64; 6HR MAX TEMP:  73;

PERU/GRISSOM   FAIR      62  50  66 NE5       30.07F
6HR MIN TEMP:  62; 6HR MAX TEMP:  74;


$$
INZ028>050-240100-
CENTRAL INDIANA

CITY           SKY/WX    TMP DP  RH WIND       PRES   REMARKS
LAFAYETTE      FAIR      67  49  52 NE7       30.07S
6HR MIN TEMP:  67; 6HR MAX TEMP:  76;

KOKOMO*        FAIR      65  48  54 E5        30.11S
6HR MIN TEMP:  65; 6HR MAX TEMP:  76;

MUNCIE*        FAIR      66  51  58 E5        30.11R
6HR MIN TEMP:  66; 6HR MAX TEMP:  78;

INDIANAPOLIS   MOCLDY    72  52  49 E7        30.06F
6HR MIN TEMP:  72; 6HR MAX TEMP:  78;


$$
MIZ043>046-050>051-056>058-064>065-071>073-077>080-240100-
SOUTHWEST LOWER MICHIGAN

CITY           SKY/WX    TMP DP  RH WIND       PRES   REMARKS
BATTLE CREEK   FAIR      68  48  48 E5        30.16S
6HR MIN TEMP:  68; 6HR MAX TEMP:  74;

BENTON HARBOR  FAIR      60  55  83 CALM      30.13R
6HR MIN TEMP:  60; 6HR MAX TEMP:  74;

COLDWATER*     FAIR      63  48  58 SE5       30.16S
6HR MIN TEMP:  63; 6HR MAX TEMP:  71;

HILLSDALE*     FAIR      61  50  67 SE3       30.17S
HOLLAND        FAIR      65  51  60 E6        30.15S
6HR MIN TEMP:  65; 6HR MAX TEMP:  72;

GRAND RAPIDS   FAIR      63  52  67 E6        30.16S
6HR MIN TEMP:  63; 6HR MAX TEMP:  71;

KALAMAZOO      FAIR      65  50  58 CALM      30.16R
6HR MIN TEMP:  65; 6HR MAX TEMP:  74;

STURGIS*       FAIR      64  51  64 E5        30.14S
6HR MIN TEMP:  64; 6HR MAX TEMP:  72;

THREE RIVERS*  FAIR      62  51  66 E3        30.15S
6HR MIN TEMP:  62; 6HR MAX TEMP:  71;


$$
OHZ001>008-015>018-024>025-240100-
NORTHWEST OHIO

CITY           SKY/WX    TMP DP  RH WIND       PRES   REMARKS
WAUSEON*       FAIR      59  57  94 E7        30.17R
DEFIANCE       FAIR      63  54  72 E6        30.16R
6HR MIN TEMP:  63; 6HR MAX TEMP:  72;

FINDLAY        FAIR      65  55  70 NE10      30.15R
6HR MIN TEMP:  65; 6HR MAX TEMP:  74;

OTTAWA*        FAIR      61  52  72 NE9       30.17R
TOLEDO EXPRESS FAIR      62  52  69 E7        30.17R
6HR MIN TEMP:  62; 6HR MAX TEMP:  71;


$$
AND FOR LAKE MICHIGAN COASTAL AND OPEN LAKE BUOY OBSERVATIONS

STATION/POSITION TEMP    WIND        PRES    VSBY  WAVE
                 AIR SEA DIR/SP/G                  HT/PER
                 (F)     (DEG/KT/KT) (MB)    (MI)  (FT/S)
CALUMET HARBOR    65      30/  7/ 10 1019.3R
MICHIGAN CITY     65      30/ 16/ 18   N/A
BURNS HARBOR      65      60/  8/ 11 1020.0R
SAINT JOSEPH      65      30/  5/  9 1020.3
SOUTH LAKE BUOY   66 69   50/ 12/ 14 1020.3F         1
4 MI NW BRIDGMAN  65 67   20/  8/ 12 1020.1          1/ 3
MICHIGAN CITY     65 69   60/ 12/ 16   N/A           3/ 4

$$
&&



USA.gov is the U.S. government's official web portal to all federal, state and local government web resources and services.